Time,TemperatureF,DewpointF,PressureIn,WindDirection,WindDirectionDegrees,WindSpeedMPH,WindSpeedGustMPH,Humidity,HourlyPrecipIn,Conditions,Clouds,dailyrainin,SoftwareType,DateUTC
2013-09-22 00:00:00,61.8,58.2,29.67,NW,315,6.0,6.0,88,0.00,,,0.00,Wunderground v.1.13,2013-09-22 04:00:00,
2013-09-22 00:30:00,62.2,58.3,29.67,WNW,287,3.0,3.0,87,0.00,,,0.00,Wunderground v.1.13,2013-09-22 04:30:00,
2013-09-22 01:00:00,62.2,58.3,29.67,WNW,299,4.0,4.0,87,0.00,,,0.00,Wunderground v.1.13,2013-09-22 05:00:00,
2013-09-22 01:30:00,62.3,58.4,29.66,North,355,3.0,9.0,87,0.00,,,0.00,Wunderground v.1.13,2013-09-22 05:30:00,
2013-09-22 02:00:00,62.0,58.4,29.63,NW,310,3.0,3.0,88,0.00,,,0.00,Wunderground v.1.13,2013-09-22 06:00:00,
2013-09-22 02:30:00,61.9,58.6,29.63,NNE,28,3.0,3.0,89,0.00,,,0.00,Wunderground v.1.13,2013-09-22 06:30:00,
2013-09-22 03:00:00,61.8,59.1,29.61,WNW,290,2.0,6.0,91,0.00,,,0.00,Wunderground v.1.13,2013-09-22 07:00:00,
2013-09-22 03:30:00,62.0,59.3,29.60,SW,233,3.0,3.0,91,0.00,,,0.00,Wunderground v.1.13,2013-09-22 07:30:00,
2013-09-22 04:00:00,62.2,59.8,29.59,NW,308,3.0,3.0,92,0.00,,,0.00,Wunderground v.1.13,2013-09-22 08:00:00,
2013-09-22 04:30:00,62.5,59.8,29.59,NNW,341,4.0,4.0,91,0.00,,,0.00,Wunderground v.1.13,2013-09-22 08:30:00,
2013-09-22 05:00:00,62.5,59.5,29.57,NNW,343,4.0,5.0,90,0.00,,,0.00,Wunderground v.1.13,2013-09-22 09:00:00,
2013-09-22 05:30:00,62.1,59.1,29.57,WNW,301,4.0,6.0,90,0.00,,,0.00,Wunderground v.1.13,2013-09-22 09:30:00,
2013-09-22 06:00:00,61.3,58.7,29.57,NNW,329,4.0,6.0,91,0.00,,,0.00,Wunderground v.1.13,2013-09-22 10:00:00,
2013-09-22 06:30:00,60.7,58.7,29.57,NNW,339,3.0,4.0,93,0.00,,,0.00,Wunderground v.1.13,2013-09-22 10:30:00,
2013-09-22 07:00:00,60.2,59.1,29.56,NW,311,2.0,2.0,96,0.00,,,0.00,Wunderground v.1.13,2013-09-22 11:00:00,
2013-09-22 07:30:00,60.0,59.1,29.55,WNW,294,2.0,6.0,97,0.00,,,0.01,Wunderground v.1.13,2013-09-22 11:30:00,
2013-09-22 08:30:00,61.1,60.5,29.52,NNW,331,3.0,3.0,98,0.14,,,0.03,Wunderground v.1.13,2013-09-22 12:30:00,
2013-09-22 09:00:00,61.8,61.2,29.50,NW,315,4.0,4.0,98,0.62,,,0.19,Wunderground v.1.13,2013-09-22 13:00:00,
2013-09-22 10:30:00,60.7,60.1,29.52,NW,326,1.0,3.0,98,0.08,,,0.81,Wunderground v.1.13,2013-09-22 14:30:00,
2013-09-22 11:00:00,60.9,60.6,29.52,NW,321,0.0,0.0,99,0.13,,,0.89,Wunderground v.1.13,2013-09-22 15:00:00,
2013-09-22 11:30:00,61.0,60.7,29.51,NW,321,0.0,0.0,99,0.18,,,0.97,Wunderground v.1.13,2013-09-22 15:30:00,
2013-09-22 12:00:00,61.4,61.1,29.49,NW,321,0.0,0.0,99,0.06,,,1.04,Wunderground v.1.13,2013-09-22 16:00:00,
2013-09-22 12:30:00,61.3,61.0,29.50,NW,321,0.0,0.0,99,0.09,,,1.09,Wunderground v.1.13,2013-09-22 16:30:00,
2013-09-22 13:00:00,61.4,61.1,29.50,North,350,0.0,3.0,99,0.00,,,1.11,Wunderground v.1.13,2013-09-22 17:00:00,
2013-09-22 13:30:00,61.8,61.2,29.50,NNW,336,1.0,1.0,98,0.00,,,1.11,Wunderground v.1.13,2013-09-22 17:30:00,
2013-09-22 14:00:00,61.1,60.0,29.51,NNW,342,1.0,1.0,96,0.00,,,1.11,Wunderground v.1.13,2013-09-22 18:00:00,
2013-09-22 14:30:00,62.9,62.0,29.50,NW,310,1.0,5.0,97,0.00,,,1.11,Wunderground v.1.13,2013-09-22 18:30:00,
2013-09-22 15:00:00,65.6,62.6,29.51,North,11,1.0,1.0,90,0.00,,,1.11,Wunderground v.1.13,2013-09-22 19:00:00,
2013-09-22 15:30:00,66.1,60.8,29.51,East,80,2.0,2.0,83,0.00,,,1.11,Wunderground v.1.13,2013-09-22 19:30:00,
2013-09-22 16:00:00,66.6,61.3,29.51,NW,325,1.0,1.0,83,0.00,,,1.11,Wunderground v.1.13,2013-09-22 20:00:00,
2013-09-22 16:30:00,67.9,61.9,29.50,North,355,0.0,2.0,81,0.00,,,1.11,Wunderground v.1.13,2013-09-22 20:30:00,
2013-09-22 17:00:00,64.6,60.0,29.52,NE,46,3.0,3.0,85,0.00,,,1.11,Wunderground v.1.13,2013-09-22 21:00:00,
2013-09-22 17:30:00,58.6,56.3,29.55,East,92,4.0,5.0,92,0.00,,,1.11,Wunderground v.1.13,2013-09-22 21:30:00,
2013-09-22 18:00:00,57.0,55.0,29.56,NE,51,4.0,5.0,93,0.00,,,1.11,Wunderground v.1.13,2013-09-22 22:00:00,
2013-09-22 18:30:00,56.0,54.3,29.57,East,88,1.0,1.0,94,0.00,,,1.11,Wunderground v.1.13,2013-09-22 22:30:00,
2013-09-22 19:00:00,54.4,52.7,29.58,SE,146,1.0,1.0,94,0.00,,,1.11,Wunderground v.1.13,2013-09-22 23:00:00,
2013-09-22 19:30:00,52.9,51.5,29.60,East,85,0.0,3.0,95,0.00,,,1.11,Wunderground v.1.13,2013-09-22 23:30:00,
2013-09-22 20:00:00,51.6,50.2,29.60,ENE,57,0.0,0.0,95,0.00,,,1.11,Wunderground v.1.13,2013-09-23 00:00:00,
2013-09-22 20:30:00,51.1,49.7,29.61,East,100,1.0,1.0,95,0.00,,,1.11,Wunderground v.1.13,2013-09-23 00:30:00,
2013-09-22 21:00:00,50.9,48.9,29.62,SSE,157,1.0,2.0,93,0.00,,,1.11,Wunderground v.1.13,2013-09-23 01:00:00,
2013-09-22 21:30:00,50.6,48.7,29.64,SE,126,2.0,3.0,93,0.00,,,1.11,Wunderground v.1.13,2013-09-23 01:30:00,
2013-09-22 22:00:00,50.1,48.2,29.65,SSE,154,2.0,9.0,93,0.00,,,1.11,Wunderground v.1.13,2013-09-23 02:00:00,
2013-09-22 22:30:00,49.4,48.0,29.66,SE,133,2.0,3.0,95,0.00,,,1.11,Wunderground v.1.13,2013-09-23 02:30:00,
2013-09-22 23:00:00,48.9,47.5,29.65,SE,136,2.0,2.0,95,0.00,,,1.11,Wunderground v.1.13,2013-09-23 03:00:00,
2013-09-22 23:30:00,48.5,47.1,29.66,East,92,1.0,1.0,95,0.00,,,1.11,Wunderground v.1.13,2013-09-23 03:30:00,